Home > Weather > Freising > Past weeks

Flag for Germany Weather for the Past 2 Weeks in Freising, Bavaria, Germany

Now
45 °F

Passing clouds.


Feels Like: 37 °F
Forecast: 36 / 42 °F
Wind: 16 mph from Southwest

Location: Munich / Franz Josef Strauss Airport

Current Time: Feb 9, 2016 at 5:01:28 AM

Latest Report: Feb 9, 2016 at 4:20 AM


Visibility: N/A

Pressure: 29.77 "Hg

Humidity: 81%

Dew point: 39 °F

Location of FreisingLocation

Historic Weather in Freising — Graph

°F

Freising Temperature Yesterday

Maximum temperature yesterday: 54 °F (at 1:50 PM)
Minimum temperature yesterday: 37 °F (at 6:20 AM)
Average temperature yesterday: 45 °F

High & Low Weather Summary for the Past Weeks

 TemperatureHumidityPressure
High57 °F (Jan 26, 2:50 PM)100% (Jan 25, 3:20 AM)30.45 "Hg (Jan 25, 3:20 AM)
Low27 °F (Feb 6, 3:50 AM)47% (Jan 28, 11:20 AM)29.62 "Hg (Feb 7, 12:50 PM)
Average42 °F84%30.13 "Hg
* Reported Jan 25 3:20 AM — Feb 9 3:20 AM, Freising, Weather by CustomWeather, © 2016

Note: Actual official high and low records may vary slightly from our data, if they occured in-between our weather recording intervals... More about our weather records

Advertising

Freising Weather History for the Previous 24 Hours

 ConditionsComfort  
Time TempWeatherWind HumidityBarometerVisibility
3:20 AM
Tue, Feb 9
45 °FSprinkles. Passing clouds.21 mph76%29.77 "HgN/A
2:50 AM45 °FSprinkles. Passing clouds.15 mph81%29.77 "HgN/A
2:20 AM45 °FSprinkles. Partly cloudy.16 mph81%29.77 "HgN/A
1:50 AM45 °FSprinkles. Partly cloudy.23 mph81%29.80 "HgN/A
1:20 AM45 °FPartly cloudy.18 mph81%29.77 "HgN/A
12:50 AM43 °FRain showers. Passing clouds.6 mph93%29.80 "HgN/A
12:20 AM43 °FSprinkles. Passing clouds.5 mph93%29.77 "HgN/A
11:50 PM
Mon, Feb 8
41 °FSprinkles. Partly cloudy.6 mph93%29.77 "HgN/A
11:20 PM41 °FPassing clouds.2 mph93%29.77 "HgN/A
10:50 PM41 °FPassing clouds.2 mph93%29.77 "HgN/A
10:20 PM41 °FPassing clouds.3 mph93%29.77 "HgN/A
9:50 PM41 °FPartly cloudy.10 mph93%29.74 "HgN/A
9:20 PM41 °FRain showers. Partly cloudy.25 mph87%29.77 "Hg6 mi
8:50 PM52 °FPartly cloudy.30 mph58%29.71 "HgN/A
8:20 PM52 °FPassing clouds.35 mph58%29.68 "HgN/A
7:50 PM54 °FPassing clouds.36 mph54%29.68 "HgN/A
7:20 PM54 °FClear.25 mph54%29.65 "Hg10 mi
6:50 PM52 °FClear.35 mph54%29.65 "Hg10 mi
6:20 PM54 °FPartly cloudy.28 mph51%29.65 "HgN/A
5:50 PM54 °FLight rain. Partly cloudy.21 mph51%29.62 "HgN/A
5:20 PM54 °FSunny.22 mph47%29.62 "Hg10 mi
4:50 PM52 °FBroken clouds.12 mph58%29.62 "HgN/A
4:20 PM52 °FLight rain. Broken clouds.10 mph58%29.62 "HgN/A
3:50 PM52 °FBroken clouds.9 mph58%29.62 "HgN/A
3:20 PM52 °FPassing clouds.10 mph58%29.62 "HgN/A
2:50 PM54 °FSunny.13 mph54%29.65 "Hg10 mi
2:20 PM54 °FSunny.10 mph54%29.65 "Hg10 mi
1:50 PM54 °FSunny.12 mph54%29.65 "Hg10 mi
1:20 PM52 °FPassing clouds.13 mph58%29.65 "HgN/A
12:50 PM50 °FSunny.13 mph62%29.68 "Hg10 mi
12:20 PM50 °FSunny.12 mph62%29.68 "Hg10 mi
11:50 AM48 °FSunny.9 mph66%29.71 "Hg10 mi
11:20 AM46 °FSunny.10 mph66%29.71 "Hg10 mi
10:50 AM46 °FSunny.8 mph66%29.74 "Hg10 mi
10:20 AM45 °FSunny.7 mph71%29.77 "Hg10 mi
9:50 AM43 °FPassing clouds.7 mph76%29.77 "HgN/A
9:20 AM41 °FPassing clouds.6 mph76%29.80 "HgN/A
8:50 AM39 °FPassing clouds.6 mph81%29.80 "HgN/A
8:20 AM37 °FPassing clouds.3 mph81%29.80 "HgN/A
7:50 AM37 °FSunny.8 mph75%29.80 "Hg10 mi
7:20 AM37 °FClear.8 mph81%29.80 "Hg10 mi
6:50 AM37 °FClear.9 mph75%29.83 "Hg10 mi
6:20 AM37 °FClear.8 mph81%29.83 "Hg10 mi
5:50 AM39 °FClear.9 mph75%29.83 "Hg10 mi
5:20 AM39 °FClear.8 mph75%29.86 "Hg10 mi
Weather by CustomWeather, © 2016

See weather overviewHow to use our weather pages